TimeEST,TemperatureF,Dew PointF,Humidity,Sea Level PressureIn,VisibilityMPH,Wind Direction,Wind SpeedMPH,Gust SpeedMPH,PrecipitationIn,Events,Conditions,WindDirDegrees,DateUTC
12:53 AM,43.0,34.0,71,30.04,10.0,SSW,3.5,-,N/A,,Clear,210,2013-02-05 05:53:00
1:53 AM,42.1,35.1,76,30.02,10.0,SSW,4.6,-,N/A,,Clear,200,2013-02-05 06:53:00
2:53 AM,42.1,35.1,76,29.99,10.0,SSW,4.6,-,N/A,,Clear,200,2013-02-05 07:53:00
3:53 AM,42.1,35.1,76,29.98,10.0,SSW,4.6,-,N/A,,Clear,210,2013-02-05 08:53:00
4:53 AM,41.0,35.1,79,29.98,10.0,SW,6.9,-,N/A,,Clear,220,2013-02-05 09:53:00
5:53 AM,39.0,35.1,86,29.99,10.0,SSW,5.8,-,N/A,,Clear,210,2013-02-05 10:53:00
6:53 AM,37.9,34.0,86,30.01,10.0,SW,6.9,-,N/A,,Clear,220,2013-02-05 11:53:00
7:53 AM,39.9,35.1,83,30.03,10.0,SW,5.8,-,N/A,,Clear,230,2013-02-05 12:53:00
8:53 AM,46.0,36.0,68,30.04,10.0,SW,9.2,-,N/A,,Clear,220,2013-02-05 13:53:00
9:53 AM,53.1,39.0,59,30.04,10.0,SW,8.1,-,N/A,,Clear,230,2013-02-05 14:53:00
10:53 AM,59.0,37.0,44,30.03,10.0,WSW,15.0,19.6,N/A,,Clear,240,2013-02-05 15:53:00
11:53 AM,63.0,35.1,35,30.00,10.0,WSW,12.7,20.7,N/A,,Mostly Cloudy,240,2013-02-05 16:53:00
12:53 PM,64.9,33.1,31,29.96,10.0,WSW,15.0,23.0,N/A,,Overcast,250,2013-02-05 17:53:00
1:53 PM,66.0,33.1,29,29.94,10.0,WSW,13.8,-,N/A,,Unknown,240,2013-02-05 18:53:00
2:53 PM,66.9,34.0,30,29.93,10.0,WSW,12.7,20.7,N/A,,Mostly Cloudy,240,2013-02-05 19:53:00
3:53 PM,66.9,36.0,32,29.91,10.0,WSW,12.7,-,N/A,,Clear,250,2013-02-05 20:53:00
4:53 PM,66.0,37.9,36,29.91,10.0,WSW,9.2,-,N/A,,Partly Cloudy,240,2013-02-05 21:53:00
5:53 PM,64.0,39.0,40,29.91,10.0,WSW,8.1,-,N/A,,Partly Cloudy,250,2013-02-05 22:53:00
6:53 PM,60.1,42.1,51,29.94,10.0,West,4.6,-,N/A,,Partly Cloudy,260,2013-02-05 23:53:00
7:53 PM,55.9,42.1,60,29.96,10.0,WSW,3.5,-,N/A,,Clear,240,2013-02-06 00:53:00
8:53 PM,55.0,42.1,62,29.97,10.0,West,5.8,-,N/A,,Clear,270,2013-02-06 01:53:00
9:53 PM,54.0,43.0,66,29.99,10.0,WSW,3.5,-,N/A,,Clear,240,2013-02-06 02:53:00
10:53 PM,51.1,42.1,71,30.00,10.0,WSW,4.6,-,N/A,,Clear,240,2013-02-06 03:53:00
11:53 PM,50.0,42.1,74,29.99,10.0,SW,5.8,-,N/A,,Clear,230,2013-02-06 04:53:00